This demonstration page uses our WeatherBlox Daily Observations layout. Learn more.

Left ArrowRight Arrow

38.88101, -77.10428

Hourly Observations for November 5, 2018

Temp ( °F °C ) Dew Point ( °F °C ) Humidity (%) Winds ( mph kmh ) Pressure ( in mb ) Visibility ( mi km ) Precip ( " mm )
12:52 am 00:52 Cloudy 54 12.2 46 7.8 75 75 NE 9 15 30.35 1028 10 16.0934 0 0
1:52 am 01:52 Cloudy 54 12.2 46 7.8 75 75 NNE 7 11 30.34 1027 10 16.0934 0 0
2:08 am 02:08 Cloudy 54 12.2 46 7.8 75 75 NNE 6 9 30.36 1028 10 16.0934 0 0
2:19 am 02:19 Cloudy with Light Rain 54 12.2 47 8.3 77 77 ENE 7 11 30.33 1027 10 16.0934 0 0.0254
2:52 am 02:52 Cloudy with Light Rain 53 11.7 48 8.9 83 83 NE 12 19 30.29 1026 10 16.0934 0 0.0254
3:52 am 03:52 Cloudy with Light Rain 53 11.7 48 8.9 83 83 NE 9 15 30.25 1024 10 16.0934 0 0.0254
4:52 am 04:52 Cloudy with Rain 53 11.7 49 9.4 86 86 NE 6 9 30.26 1025 6 9.65604 0.04 1.016
5:52 am 05:52 Cloudy with Rain 54 12.2 50 10 87 87 ENE 10 17 30.23 1024 6 9.65604 0.08 2.032
6:20 am 06:20 Cloudy with Rain 53 11.7 51 10.6 93 93 ENE 7 11 30.21 1023 6 9.65604 0.07 1.778
6:29 am 06:29 Cloudy with Rain 54 12.2 51 10.6 90 90 ENE 5 7 30.24 1024 5 8.0467 0.1 2.54
6:52 am 06:52 Cloudy with Light Rain 54 12.2 51 10.6 90 90 ENE 6 9 30.22 1023 5 8.0467 0.12 3.048
7:52 am 07:52 Cloudy with Light Rain 56 13.3 53 11.7 90 90 NNE 7 11 30.19 1022 4 6.43736 0.15 3.81
8:44 am 08:44 Cloudy with Heavy Rain 57 13.9 54 12.2 90 90 NNW 5 7 30.21 1023 2 3.21868 0.1 2.54
8:47 am 08:47 Cloudy with Heavy Rain 57 14 54 12 88 88 NW 3 6 30.21 1023 1.5 2.41401 0.12 3.048
8:52 am 08:52 Cloudy with Heavy Rain 58 14.4 55 12.8 90 90 VRB 3 6 30.19 1022 1 1.60934 0.17 4.318
9:44 am 09:44 Cloudy with Heavy Rain 55 12.8 52 11.1 90 90 W 10 17 30.21 1023 0.75 1.207005 0.53 13.462
9:52 am 09:52 Cloudy with Heavy Rain 54 12.2 51 10.6 90 90 WNW 12 19 30.2 1023 0.75 1.207005 0.67 17.018
10:01 am 10:01 Cloudy with Heavy Rain 54 12.2 51 10.6 90 90 NW 12 19 30.21 1023 1 1.60934 0.13 3.302
10:05 am 10:05 Cloudy with Rain 54 12.2 51 10.6 90 90 NW 13 20 30.21 1023 1.25 2.011675 0.15 3.81
10:08 am 10:08 Cloudy with Light Rain 54 12.2 50 10 87 87 NW 10 17 30.21 1023 2.5 4.02335 0.16 4.064
10:10 am 10:10 Cloudy with Light Rain 54 12.2 50 10 87 87 NW 9 15 30.21 1023 4 6.43736 0.16 4.064
10:20 am 10:20 Cloudy with Light Rain 54 12.2 50 10 87 87 NNW 12 19 30.21 1023 6 9.65604 0.17 4.318
10:31 am 10:31 Cloudy with Rain 53 11.7 50 10 89 89 NNW 12 19 30.21 1023 3 4.82802 0.19 4.826
10:46 am 10:46 Cloudy with Light Rain 54 12 52 11 94 94 N 12 19 30.21 1023 10 16.0934 0.2 5.08
10:52 am 10:52 Cloudy with Light Rain 54 12.2 50 10 87 87 N 12 19 30.2 1023 6 9.65604 0.2 5.08
11:01 am 11:01 Cloudy with Light Rain 54 12.2 51 10.6 90 90 N 14 22 30.21 1023 7 11.26538 0 0.0254
11:19 am 11:19 Cloudy 54 12.2 50 10 87 87 N 10 17 30.18 1022 8 12.87472 0 0.0254
11:52 am 11:52 Cloudy with Light Rain 54 12.2 50 10 87 87 N 12 19 30.16 1022 7 11.26538 0 0.0254
12:52 pm 12:52 Cloudy 55 12.8 51 10.6 87 87 NNE 12 19 30.12 1020 10 16.0934 0 0.0254
1:52 pm 13:52 Cloudy 55 12.8 51 10.6 87 87 NNW 10 17 30.1 1019 10 16.0934 0 0
2:52 pm 14:52 Cloudy with Light Rain 55 12.8 51 10.6 87 87 NNW 9 15 30.1 1019 4 6.43736 0 0.0254
2:55 pm 14:55 Cloudy with Light Rain 55 12.8 51 10.6 87 87 N 8 13 30.09 1019 4 6.43736 0 0.0254
3:31 pm 15:31 Cloudy with Light Rain 55 12.8 52 11.1 90 90 NNW 9 15 30.09 1019 3 4.82802 0 0.0254
3:52 pm 15:52 Cloudy with Mist and Fog 54 12.2 52 11.1 93 93 NNW 9 15 30.1 1019 4 6.43736 0 0.0254
3:55 pm 15:55 Cloudy with Drizzle 54 12.2 51 10.6 90 90 NNW 10 17 30.09 1019 4 6.43736 0 0.0254
4:43 pm 16:43 Cloudy with Drizzle 55 12.8 52 11.1 90 90 NNW 9 15 30.09 1019 3 4.82802 0 0.0254
4:52 pm 16:52 Cloudy with Drizzle 55 12.8 52 11.1 90 90 NNW 8 13 30.09 1019 3 4.82802 0 0.0254
5:52 pm 17:52 Cloudy with Drizzle 55 12.8 52 11.1 90 90 NNW 7 11 30.09 1019 3 4.82802 0 0.0254
5:58 pm 17:58 Cloudy with Drizzle 55 12.8 52 11.1 90 90 NNW 7 11 30.09 1019 2.5 4.02335 0 0.0254
6:00 pm 18:00 Cloudy with Drizzle 55 12.8 52 11.1 90 90 NNW 7 11 30.09 1019 3 4.82802 0 0.0254
6:52 pm 18:52 Cloudy with Drizzle 55 12.8 52 11.1 90 90 NNW 8 13 30.09 1019 4 6.43736 0.01 0.254
7:52 pm 19:52 Cloudy with Drizzle 55 12.8 52 11.1 90 90 WNW 6 9 30.1 1019 6 9.65604 0 0.0254
8:52 pm 20:52 Cloudy with Drizzle 55 12.8 52 11.1 90 90 NW 5 7 30.1 1019 4 6.43736 0 0.0254
9:52 pm 21:52 Cloudy with Drizzle 55 12.8 52 11.1 90 90 WNW 3 6 30.1 1019 5 8.0467 0 0.0254
10:45 pm 22:45 Cloudy 55 12.8 52 11.1 90 90 NNW 5 7 30.09 1019 10 16.0934 0 0.0254
10:52 pm 22:52 Cloudy 55 12.8 52 11.1 90 90 NNW 6 9 30.09 1019 10 16.0934 0 0.0254
11:01 pm 23:01 Cloudy with Drizzle 55 12.8 52 11.1 90 90 NW 3 6 30.09 1019 3 4.82802 0 0.0254
11:49 pm 23:49 Cloudy with Mist and Fog 54 12 52 11 94 94 Calm 30.06 1018 2.5 4.02335 0 0.0254
11:52 pm 23:52 Cloudy with Mist and Fog 54 12.2 52 11.1 93 93 NE 3 6 30.06 1018 2.5 4.02335 0 0.0254

Powered by AerisWeather